Lid_Strength_Index
11 13 15 14 13 14 14 15 16 15 13 14 14 14 13 12 12 12 11 11 10 10 9 9 9 9 7 3 1 1 1 1 1 1 2 2 2 2 2 3 3 3 3 3
13 16 13 12 13 14 15 16 16 14 13 13 15 14 13 12 12 11 11 11 11 11 10 10 10 10 10 7 3 1 1 1 1 1 1 1 1 1 1 2 3 3 3 3
14 13 12 12 14 14 16 16 16 15 15 15 16 16 15 14 13 12 12 11 11 11 11 11 11 10 10 10 7 3 1 1 1 0 1 1 1 2 1 2 3 3 3 4
14 14 14 15 15 14 16 14 14 15 16 18 16 20 17 15 14 13 12 13 12 11 11 10 10 10 10 10 10 5 2 1 1 0 1 1 2 3 1 1 1 2 3 4
14 14 15 16 15 13 15 13 14 14 16 17 18 18 17 16 14 13 13 12 11 11 10 10 10 10 9 8 9 9 5 2 1 1 1 1 2 1 1 2 2 2 3 2
14 12 12 13 13 13 13 14 15 16 17 20 18 18 18 17 15 14 13 13 12 12 11 11 10 10 9 9 6 7 7 4 1 1 1 1 2 2 3 2 2 3 3 3
14 14 13 12 13 13 14 15 19 20 20 20 19 18 17 15 14 14 13 12 12 11 11 11 11 10 10 9 9 5 4 4 2 2 2 1 1 1 2 3 2 3 3 4
17 18 13 12 13 14 15 15 18 22 22 20 17 19 17 14 13 12 11 12 11 11 11 11 11 10 10 10 9 8 7 5 3 3 3 3 3 3 3 3 3 3 3 2
17 17 13 13 12 11 14 16 15 18 24 21 18 17 15 14 12 12 12 12 12 12 12 11 11 11 10 10 9 9 8 8 7 6 4 4 4 4 5 5 5 5 5 5
13 16 14 13 12 12 13 12 16 17 23 23 20 19 17 15 13 13 13 13 12 12 12 12 12 11 11 10 10 9 9 9 9 8 7 7 7 6 7 7 6 6 6 6
13 14 15 13 14 14 15 15 16 15 17 20 23 19 16 15 13 13 13 13 13 13 12 12 11 11 11 11 11 11 11 10 9 9 8 8 8 8 7 7 7 7 7 7
12 14 16 14 13 13 14 14 14 16 19 20 19 18 14 13 12 12 12 12 12 12 12 12 11 11 11 12 12 12 11 11 10 10 9 9 9 9 9 9 8 8 8 9
12 15 21 16 15 14 14 15 14 15 16 18 20 17 13 13 12 12 12 12 12 12 12 12 12 12 12 12 12 12 12 12 12 11 11 11 11 11 11 11 10 10 10 10
9 14 14 17 16 15 15 15 14 14 17 16 16 16 14 13 13 12 12 12 12 12 12 12 12 12 13 13 13 12 12 12 12 12 12 13 13 13 12 12 12 12 12 12
11 15 14 14 16 15 14 14 13 14 13 15 14 16 13 12 12 11 12 13 12 13 13 13 13 13 13 13 12 13 13 13 13 13 13 13 13 13 13 14 13 13 13 13
11 15 15 16 14 14 16 15 14 13 13 13 16 15 13 10 12 12 12 13 13 13 13 14 14 14 13 13 14 14 14 14 14 14 14 14 14 14 14 14 14 14 13 13
12 13 16 16 15 14 16 15 15 14 12 13 15 13 13 14 11 12 13 12 13 13 14 14 14 14 15 15 15 15 15 15 15 15 15 15 15 15 15 14 14 14 13 13
13 13 13 16 15 20 14 12 12 13 13 12 14 13 13 12 12 13 13 13 14 14 15 15 15 15 15 15 16 16 16 16 16 16 16 16 15 15 15 15 14 14 14 14
10 12 15 17 17 16 14 16 15 14 13 12 12 14 15 14 14 15 14 13 14 15 15 15 15 16 16 16 16 16 17 17 17 17 16 16 16 16 16 17 15 15 15 15
13 12 14 16 19 20 16 16 14 12 15 12 12 15 15 13 15 15 14 13 14 15 15 16 16 16 17 17 17 18 18 19 19 19 18 17 17 19 19 18 17 17 17 16
15 15 16 16 17 16 17 16 14 17 16 17 12 13 14 12 13 14 14 15 15 15 17 17 17 18 18 18 19 19 20 21 20 20 20 20 20 21 20 19 19 18 17 16
15 16 16 16 18 19 17 14 15 15 16 16 14 14 16 16 15 15 16 17 16 17 18 19 19 19 20 20 21 21 22 21 22 22 23 23 23 21 19 20 18 18 18 17
16 13 15 15 15 14 16 15 14 14 16 16 15 15 15 16 16 16 17 17 17 17 19 20 20 20 21 22 22 24 23 23 23 25 25 24 23 21 20 20 19 17 16 16
16 14 15 15 14 14 14 15 14 15 15 15 15 15 15 16 16 17 17 17 19 19 20 21 21 22 23 24 24 25 24 25 28 28 27 25 24 23 22 20 18 17 15 14
15 15 17 17 17 16 16 15 15 15 15 16 16 16 16 16 17 17 18 19 20 21 22 22 23 24 25 25 26 27 26 28 28 27 26 25 24 24 23 20 19 18 16 15
15 16 16 16 14 14 15 15 14 15 16 16 17 17 18 17 18 18 20 20 21 23 23 24 24 25 25 26 26 26 28 29 30 27 25 25 25 24 23 22 21 17 15 14